Location: Bismarck
(46.7731°N, 100.8200°W)
Time: 16:00:52
(UTC-05:00)

ISS - All Passes

Search period start: 01 September 2014 00:00
Search period end: 11 September 2014 00:00
Orbit: 414 x 419 km, 51.6° (Epoch: 01 September)

Date Brightness Start Highest point End Pass type
(mag) Time Alt. Az. Time Alt. Az. Time Alt. Az.
01 Sep - 11:10:09 10° SSW 11:13:11 34° SE 11:16:15 10° ENE daylight
01 Sep - 12:46:35 10° W 12:49:51 53° NNW 12:53:08 10° ENE daylight
01 Sep - 14:23:55 10° WNW 14:27:00 34° N 14:30:05 10° ENE daylight
01 Sep - 16:00:48 10° WNW 16:04:07 64° NNE 16:07:26 10° ESE daylight
01 Sep - 17:37:49 10° W 17:40:39 26° SW 17:43:29 10° SSE daylight
02 Sep - 10:22:10 10° S 10:24:48 22° SE 10:27:26 10° E daylight
02 Sep - 11:57:56 10° WSW 12:01:16 72° NNW 12:04:36 10° ENE daylight
02 Sep - 13:35:15 10° WNW 13:38:20 34° N 13:41:26 10° ENE daylight
02 Sep - 15:12:15 10° WNW 15:15:31 48° NNE 15:18:46 10° E daylight
02 Sep - 16:49:04 10° WNW 16:52:14 41° SW 16:55:23 10° SE daylight
03 Sep - 09:34:38 10° SSE 09:36:26 14° SE 09:38:14 10° ESE daylight
03 Sep - 11:09:22 10° WSW 11:12:42 79° SSE 11:16:02 10° ENE daylight
03 Sep - 12:46:31 10° W 12:49:39 37° N 12:52:47 10° ENE daylight
03 Sep - 14:23:41 10° WNW 14:26:51 39° NNE 14:30:01 10° E daylight
03 Sep - 16:00:25 10° WNW 16:03:44 64° SSW 16:07:02 10° SE daylight
03 Sep - 17:38:55 10° WSW 17:39:54 11° SW 17:40:53 10° SSW daylight
04 Sep - 10:20:55 10° SW 10:24:09 50° SSE 10:27:24 10° ENE daylight
04 Sep - 11:57:45 10° W 12:00:57 43° NNW 12:04:10 10° ENE daylight
04 Sep - 13:35:02 10° WNW 13:38:09 35° N 13:41:15 10° ENE daylight
04 Sep - 15:11:49 10° WNW 15:15:10 85° NNE 15:18:30 10° ESE daylight
04 Sep - 16:49:12 10° W 16:51:32 18° SW 16:53:52 10° S daylight
05 Sep - 09:32:39 10° SSW 09:35:39 32° SE 09:38:40 10° ENE daylight
05 Sep - 11:08:59 10° W 11:12:16 55° NNW 11:15:34 10° ENE daylight
05 Sep - 12:46:20 10° WNW 12:49:25 34° N 12:52:29 10° ENE daylight
05 Sep - 14:23:13 10° WNW 14:26:31 61° NNE 14:29:50 10° ESE daylight
05 Sep - 16:00:11 10° W 16:03:05 28° SW 16:05:59 10° SSE daylight
06 Sep - 08:44:38 10° S 08:47:10 20° SE 08:49:43 10° E daylight
06 Sep - 10:20:16 10° WSW 10:23:36 76° NNW 10:26:56 10° ENE daylight
06 Sep - 11:57:33 10° WNW 12:00:39 34° N 12:03:44 10° ENE daylight
06 Sep - 13:34:35 10° WNW 13:37:49 46° NNE 13:41:03 10° E daylight
06 Sep - 15:11:22 10° WNW 15:14:34 44° SW 15:17:45 10° SE daylight
07 Sep - 07:57:10 10° SSE 07:58:43 13° SE 08:00:17 10° ESE daylight
07 Sep - 09:31:38 10° SW 09:34:57 73° SSE 09:38:17 10° ENE daylight
07 Sep - 11:08:43 10° W 11:11:52 38° N 11:15:01 10° ENE daylight
07 Sep - 12:45:54 10° WNW 12:49:04 38° N 12:52:14 10° E daylight
07 Sep - 14:22:39 10° WNW 14:25:58 69° SSW 14:29:17 10° SE daylight
07 Sep - 16:00:49 10° WSW 16:02:10 12° SW 16:03:31 10° SSW daylight
08 Sep - 08:43:07 10° SW 08:46:19 47° SE 08:49:33 10° ENE daylight
08 Sep - 10:19:52 10° W 10:23:05 45° NNW 10:26:19 10° ENE daylight
08 Sep - 11:57:10 10° WNW 12:00:16 35° N 12:03:22 10° ENE daylight
08 Sep - 13:33:57 10° WNW 13:37:18 80° NNE 13:40:38 10° ESE daylight
08 Sep - 15:11:15 10° W 15:13:42 19° SW 15:16:09 10° S daylight
09 Sep - 07:54:47 10° SSW 07:57:44 29° SE 08:00:41 10° E daylight
09 Sep - 09:31:01 10° W 09:34:19 58° NNW 09:37:37 10° ENE daylight
09 Sep - 11:08:21 10° WNW 11:11:26 33° N 11:14:31 10° ENE daylight
09 Sep - 12:45:16 10° WNW 12:48:34 57° NNE 12:51:51 10° E daylight
09 Sep - 14:22:11 10° W 14:25:09 30° SW 14:28:07 10° SSE daylight
10 Sep - 07:06:45 10° S 07:09:10 19° SE 07:11:36 10° E daylight
10 Sep - 08:42:14 10° WSW 08:45:34 81° NNW 08:48:54 10° ENE daylight
10 Sep - 10:19:29 10° WNW 10:22:35 35° N 10:25:41 10° ENE daylight
10 Sep - 11:56:32 10° WNW 11:59:46 44° NNE 12:02:59 10° E daylight
10 Sep - 13:33:18 10° WNW 13:36:32 48° SSW 13:39:45 10° SE daylight
